This is the latest recevied weather packets stored in our database for station/object KF4WSW-13. If no packets are shown the sender has not sent any weather packets the latest 10 day(s).
| Time | Temp. | Humidity | Pressure | Rain* | Wind** | Luminosity | Snow |
|---|---|---|---|---|---|---|---|
| 1777422552 | 25° C | 73% | 1015.3 hPa | 0 mm | - | 0 W/m² | - |
| 1777422248 | 25° C | 73% | 1015.4 hPa | 0 mm | - | 0 W/m² | - |
| 1777421946 | 25° C | 74% | 1015.3 hPa | 0 mm | - | 0 W/m² | - |
| 1777421642 | 25° C | 74% | 1015.1 hPa | 0 mm | - | 1 W/m² | - |
| 1777421336 | 25° C | 73% | 1015.3 hPa | 0 mm | - | 1 W/m² | - |
| 1777421034 | 25° C | 72% | 1015.2 hPa | 0 mm | - | 3 W/m² | - |
| 1777420730 | 25° C | 70% | 1015.1 hPa | 0 mm | - | 5 W/m² | - |
| 1777420426 | 25° C | 69% | 1015.1 hPa | 0 mm | - | 8 W/m² | - |
| 1777420123 | 25.56° C | 69% | 1015.1 hPa | 0 mm | - | 11 W/m² | - |
| 1777419819 | 25.56° C | 68% | 1015 hPa | 0 mm | - | 14 W/m² | - |
| 1777419517 | 25.56° C | 66% | 1014.9 hPa | 0 mm | - | 17 W/m² | - |
| 1777419216 | 25.56° C | 66% | 1015 hPa | 0 mm | - | 21 W/m² | - |
| 1777418912 | 25.56° C | 65% | 1015.1 hPa | 0 mm | - | 24 W/m² | - |
| 1777418608 | 25.56° C | 67% | 1015.2 hPa | 0 mm | - | 27 W/m² | - |
| 1777418304 | 25.56° C | 67% | 1015.2 hPa | 0 mm | - | 29 W/m² | - |
| 1777418000 | 26.11° C | 64% | 1015.1 hPa | 0 mm | - | 31 W/m² | - |
| 1777417696 | 26.11° C | 64% | 1015.2 hPa | 0 mm | - | 34 W/m² | - |
| 1777417386 | 26.11° C | 64% | 1015.2 hPa | 0 mm | - | 35 W/m² | - |
| 1777417084 | 26.11° C | 60% | 1015.1 hPa | 0 mm | - | 37 W/m² | - |
| 1777416778 | 26.11° C | 63% | 1015.1 hPa | 0 mm | - | 39 W/m² | - |
| 1777416474 | 26.67° C | 63% | 1015.3 hPa | 0 mm | - | 41 W/m² | - |
| 1777416170 | 27.22° C | 56% | 1015.3 hPa | 0 mm | - | 42 W/m² | - |
| 1777415864 | 26.67° C | 57% | 1015.3 hPa | 0 mm | - | 46 W/m² | - |
| 1777415560 | 27.22° C | 55% | 1015.3 hPa | 0 mm | - | 46 W/m² | - |
| 1777415256 | 27.78° C | 53% | 1015.3 hPa | 0 mm | - | 67 W/m² | - |
* Rain latest hour (hover to see other rain measurements)
** Current wind speed in m/s (hover to see current wind gust speed)